Weather observations for the past three days for
Bismarck, Bismarck Municipal Airport
Metric (Imperial)
Date Time (cdt) Wind (kph) Vis. (km) Weather Sky Cond. Temperature (ºC) Relative Humidity Wind Chill (°C) Heat Index (°C) Pressure Precipitation (cm)
Air Dwpt 6 hour altimeter (cm) sea level (mb) 1 hr 3 hr 6 hr
Max. Min.
24 22:52 Calm 16.09 Mostly Cloudy BKN080 7.8 5.6 86% 75.41 1006.5
24 21:52 N 7 16.09 Mostly Cloudy BKN070 8.9 6.1 83% 8 75.39 1006.2
24 20:52 NW 7 16.09 Overcast OVC075 10.6 5.6 71% 75.39 1005.8
24 19:52 N 13 16.09 Fair CLR 11.7 6.1 69% 75.36 1005.3
24 18:52 N 17 16.09 A Few Clouds FEW060 12.2 5 13.3 5.6 62% 75.36 1005.2
24 17:52 NW 24 16.09 Partly Cloudy SCT060 12.2 5 62% 75.39 1005.5
24 16:52 NW 26 G 44 16.09 Mostly Cloudy FEW028 BKN033 BKN044 11.1 4.4 64% 75.41 1005.8
24 15:52 NW 31 G 56 16.09 Overcast BKN022 BKN028 OVC038 8.9 3.9 71% 5 75.41 1005.9
24 14:52 NW 30 G 54 16.09 Overcast OVC020 7.2 3.9 80% 3 75.39 1005.8
24 13:52 NW 31 G 52 16.09 Overcast BKN019 OVC024 6.7 3.9 83% 3 75.36 1005.5
24 12:52 NW 31 G 59 16.09 Light Rain BKN014 OVC020 5.6 3.9 7.8 3.9 89% 1 75.34 1005.3 0.05 0.53
24 11:52 NW 41 G 69 16.09 Light Rain and Breezy BKN016 OVC022 5 3.3 89% -0 75.26 1004.4 0.13
24 10:52 NW 41 G 65 16.09 Light Rain and Breezy OVC015 3.9 2.2 89% -2 75.16 1003.0 0.03
24 09:52 NW 50 G 74 16.09 Light Rain and Windy OVC016 4.4 2.8 89% -2 75.11 1002.2 0.03 0.33
24 08:52 NW 41 G 67 9.66 Light Rain Fog/Mist and Breezy BKN016 BKN022 OVC034 5 3.9 93% -0 75.06 1001.3 0.2
24 07:52 N 37 G 57 9.66 Light Rain Fog/Mist and Breezy OVC013 7.2 5.6 90% 3 74.98 1000.2 0.1
24 06:52 N 28 G 50 16.09 Light Rain BKN011 BKN030 OVC060 7.8 6.7 10.6 7.8 93% 4 74.93 999.4 0.28
24 05:52 NW 37 G 52 16.09 Light Rain and Breezy FEW008 BKN018 OVC060 8.3 7.2 93% 4 74.9 999.0 0.1
24 04:52 NW 15 16.09 Light Rain OVC008 9.4 8.9 97% 7 74.93 999.1 0.08
24 03:52 N 7 14.48 Rain OVC008 10.6 9.4 92% 74.93 999.0 0.1 0.1
24 02:52 NE 13 G 30 16.09 Light Rain OVC008 10 8.9 93% 8 74.93 999.2
24 01:52 N 28 G 50 16.09 Mostly Cloudy BKN013 BKN017 BKN120 10 8.9 93% 7 74.96 999.3
24 00:52 NE 35 G 59 16.09 Overcast and Breezy OVC011 10 8.3 14.4 10 89% 7 74.98 999.7 0.43
23 23:52 N 33 G 48 16.09 Overcast and Breezy OVC013 10 8.9 93% 7 75.16 1002.2 0.05
23 22:52 NE 31 G 44 6.44 Heavy Rain Fog/Mist BKN011 BKN020 OVC035 10 9.4 96% 7 75.18 1002.6 0.25
23 21:52 N 22 G 37 16.09 Light Rain OVC014 11.1 10 93% 75.31 1004.1 0.13 0.13
23 20:52 NE 28 G 43 16.09 Light Rain OVC018 12.2 9.4 83% 75.29 1004.0
23 19:52 NE 41 G 59 16.09 Overcast and Breezy OVC021 13.3 8.9 75% 75.21 1003.0
23 18:52 NE 31 G 57 16.09 Overcast OVC023 14.4 9.4 18.3 14.4 72% 75.18 1002.5
23 17:52 NE 28 G 48 16.09 Mostly Cloudy SCT025 SCT090 BKN120 15 10 72% 75.29 1003.7
23 16:52 NE 37 G 54 16.09 A Few Clouds and Breezy FEW025 15 10 72% 75.31 1004.0
23 15:52 NE 43 G 61 16.09 A Few Clouds and Windy FEW025 16.1 10 67% 75.31 1004.1
23 14:52 E 39 G 59 16.09 Partly Cloudy and Breezy SCT120 15.6 10 70% 75.29 1003.7
23 13:52 E 33 G 50 16.09 Partly Cloudy and Breezy SCT120 17.2 10 63% 75.34 1004.4
23 12:52 E 35 G 48 16.09 A Few Clouds and Breezy FEW110 17.2 9.4 17.8 11.1 60% 75.39 1005.0
23 11:52 E 30 G 43 16.09 Mostly Cloudy BKN110 15.6 8.9 65% 75.39 1005.2
23 10:52 E 31 G 46 16.09 Fair CLR 16.7 8.9 60% 75.36 1004.7
23 09:52 NE 30 G 43 16.09 Fair CLR 15.6 9.4 67% 75.36 1004.7
23 08:52 E 30 G 46 16.09 Fair CLR 13.3 8.9 75% 75.39 1004.9
23 07:52 NE 26 G 41 16.09 Mostly Cloudy BKN110 11.7 7.8 77% 75.34 1004.5
23 06:52 NE 28 G 35 16.09 Mostly Cloudy SCT100 BKN120 11.1 7.2 12.8 11.1 77% 75.36 1004.8 0.03
23 05:52 NE 13 16.09 Overcast BKN080 OVC100 11.1 7.8 80% 75.46 1005.9
23 04:52 NE 19 16.09 Light Rain OVC075 11.7 7.8 77% 75.46 1006.0 0.03
23 03:52 Calm 16.09 Overcast FEW055 OVC075 12.8 7.2 69% 75.51 1006.4
23 02:52 NE 9 16.09 Overcast FEW065 OVC095 12.2 7.2 72% 75.49 1006.2
23 01:52 E 17 16.09 Mostly Cloudy BKN090 12.2 7.8 75% 75.51 1006.7
23 00:52 E 20 16.09 Mostly Cloudy BKN110 12.2 7.8 20.6 12.2 75% 75.54 1006.9
22 23:52 NE 20 G 39 16.09 Fair CLR 12.8 7.8 72% 75.54 1007.1
22 22:52 N 13 16.09 Mostly Cloudy BKN100 BKN120 14.4 7.8 65% 75.54 1006.9
22 21:52 E 9 16.09 Fair CLR 15 8.3 64% 75.49 1006.4
22 20:52 SE 9 16.09 Partly Cloudy SCT110 16.1 9.4 65% 75.49 1006.7
22 19:52 SE 15 16.09 Fair CLR 17.8 6.7 48% 75.49 1006.5
22 18:52 E 7 16.09 Fair CLR 19.4 7.2 21.7 17.8 45% 75.46 1006.3
22 17:52 SE 11 16.09 A Few Clouds FEW120 20 6.1 40% 75.51 1006.9
22 16:52 Vrbl 11 16.09 Fair CLR 20 4.4 36% 75.51 1007.1
22 15:52 Vrbl 11 16.09 Fair CLR 20 5.6 39% 75.57 1007.5
22 14:52 Calm 16.09 Fair CLR 20 3.3 33% 75.62 1008.1
22 12:52 Calm 16.09 A Few Clouds FEW090 17.8 2.2 18.9 6.7 35% 75.67 1008.8
22 11:52 N 7 16.09 Fair CLR 17.2 2.2 37% 75.69 1009.1
22 09:52 Calm 16.09 Fair CLR 14.4 3.9 50% 75.72 1009.6
22 08:52 Calm 16.09 Fair CLR 11.7 4.4 61% 75.74 1009.8
22 07:52 Calm 16.09 Fair CLR 9.4 3.3 66% 75.74 1009.9
22 06:52 W 7 16.09 Fair CLR 6.7 3.9 10.6 4.4 83% 6 75.72 1009.8
22 05:52 SW 6 16.09 Fair CLR 4.4 2.8 89% 75.69 1009.5
22 04:52 NW 6 16.09 Fair CLR 5 3.3 89% 75.72 1009.6
22 03:52 W 9 16.09 Fair CLR 7.2 4.4 83% 6 75.69 1009.3
22 02:52 W 9 16.09 Fair CLR 7.8 4.4 79% 6 75.69 1009.4
22 01:52 W 11 16.09 Fair CLR 9.4 5 74% 8 75.69 1009.3
22 00:52 NW 7 16.09 Fair CLR 10.6 5 20 10.6 69% 75.72 1009.5
21 23:52 NW 20 16.09 Fair CLR 12.8 5 59% 75.69 1009.2
Date Time (cdt) Wind (kph) Vis. (km) Weather Sky Cond. Air Dwpt Max. Min. Relative Humidity Wind Chill (°C) Heat Index (°C) altimeter (cm) sea level (mb) 1 hr 3 hr 6 hr
6 hour
Temperature (ºC) Pressure Precipitation (cm)